CAPE
0 0 0 0 0 0 0 0 0 0 0 0 0 0 0 0 0 0 0 522 900 1228 2848 1874 1583 1872 2002 2237 2285 2269 2301 2396 2321 2246 2276 2239 2263 2411 2474 2449 2491 2668 2757 2196 2142 2047 2038 2128 2423
0 0 0 0 0 0 0 0 0 0 0 0 0 0 0 0 0 0 0 357 1297 1661 2779 2165 1540 1822 1995 2193 2368 2448 2645 2549 2381 2351 2418 2368 2411 2514 2530 2479 2419 2483 2728 2183 2266 2170 2216 2116 1976
0 0 0 0 0 0 0 0 0 0 0 0 0 0 0 0 0 0 26 1309 1800 1944 2521 2527 1567 1736 1971 2160 2400 2566 2680 2466 2339 2381 2527 2528 2577 2661 2624 2416 2463 2736 2811 2309 2027 2552 2238 1848 1699
0 0 0 0 0 0 0 0 0 0 0 0 0 0 0 0 0 0 71 1489 2046 2145 2321 1520 1523 1666 1929 2160 2433 2573 2543 2391 2299 2342 2546 2628 2711 2737 2619 2353 2513 2849 2927 2670 2616 2448 1974 1558 1526
0 0 0 0 0 0 0 0 0 0 0 0 0 0 0 0 0 0 138 1611 2271 2208 2528 2616 1577 1646 1893 2178 2429 2440 2399 2349 2329 2408 2503 2599 2700 2741 2452 2296 2507 2799 2867 2833 2668 2148 1662 1477 1459
0 0 0 0 0 0 0 0 0 0 0 0 0 0 0 0 0 0 213 1211 2564 2412 2650 3169 1713 1693 1835 2022 2160 2158 2217 2283 2367 2445 2500 2657 2630 2502 2298 2280 2430 2624 2676 2582 2197 1701 1562 1463 1417
0 0 0 0 0 0 0 0 0 0 0 0 0 0 0 0 0 0 0 926 2476 2851 2812 3397 2546 2114 1745 1845 1866 1896 2064 2221 2343 2449 2494 2611 2491 2257 2197 2260 2389 2499 2457 2255 1873 1564 1443 1424 1309
0 0 0 0 0 0 0 0 0 0 0 0 0 0 0 0 0 0 0 0 2016 2854 3149 3491 2851 2595 2324 2047 1578 1597 1875 2076 2247 2299 2406 2394 2290 2139 2140 2203 2293 2387 2020 1903 1715 1435 1355 1318 1108
0 0 0 0 0 0 0 0 0 0 0 0 0 0 0 0 0 0 0 0 1014 2554 2748 3494 2957 2820 2769 2483 2080 1472 1528 1769 1950 2195 2185 2218 2811 2740 2597 2267 2161 2138 1806 1721 1587 1325 1245 1138 873
0 0 0 0 0 0 0 0 0 0 0 0 0 0 0 0 0 0 0 0 0 861 2686 2974 3014 2881 3307 2707 2884 2251 2084 1969 2190 2337 2729 2805 2541 2793 2264 2113 1985 1901 1742 1598 1444 1243 1104 1000 1456
0 0 0 0 0 0 0 0 0 0 0 0 0 0 0 0 0 0 0 0 0 21 2363 2766 2758 2776 2772 3138 2997 2638 2563 2356 2370 2415 2530 2487 2666 2996 2477 2826 2498 2632 1576 2327 1539 1413 1543 1418 1349
0 0 0 0 0 0 0 0 0 0 0 0 0 0 0 0 0 0 0 0 0 0 1051 2731 2945 2821 2771 3270 2801 2675 2635 2885 2722 2789 3570 3238 3053 3217 3029 2622 2647 2885 2622 2420 2170 1827 1628 1891 1876
0 0 0 0 0 0 0 0 0 0 0 0 0 0 0 0 0 0 0 0 0 0 0 1097 2674 2978 3147 3142 2937 2974 3083 2618 2739 2788 3407 3052 2690 3409 3085 2640 2839 2659 2444 2615 2446 2015 2019 1847 1590
0 0 0 0 0 0 0 0 0 0 0 0 0 0 0 0 0 0 0 0 0 0 0 0 36 2597 2774 3033 3241 3346 3254 2991 3000 2835 2857 3681 3185 3085 2810 2952 2377 2743 2415 2259 2590 2256 1946 1987 1747
0 0 0 0 0 0 0 0 0 0 0 0 0 0 0 0 0 0 0 0 0 0 0 0 0 0 1603 2427 2751 3064 2695 2821 2853 2768 3450 2853 3489 3633 3192 2879 2748 2107 2431 2847 2951 2731 2314 2031 2123
0 0 0 0 0 0 0 0 0 0 0 0 0 0 0 0 0 0 0 0 0 0 0 0 0 0 0 1061 1990 2611 2745 2985 2775 2904 2637 3073 2752 3241 3215 2715 3007 2712 2712 2870 2756 2676 2499 1973 1734
0 0 0 0 0 0 0 0 0 0 0 0 0 0 0 0 0 0 0 0 0 0 0 0 0 0 0 6 1207 2219 2814 2946 2707 2604 2666 2996 2976 3326 3332 2688 2674 3336 2886 2981 2653 2417 2492 2456 2143
0 0 0 0 0 0 0 0 0 0 0 0 0 0 0 0 0 0 0 0 0 0 0 0 0 0 0 0 29 997 1932 2522 2923 2850 2550 2824 3463 3365 3232 2724 2889 2795 2962 3075 3059 2725 2457 2255 2153
0 0 0 0 0 0 0 0 0 0 0 0 0 0 0 0 0 0 0 0 0 0 0 0 0 0 0 0 0 23 1726 2151 2723 2842 3081 2670 3117 3639 3445 3256 3283 2958 2627 2542 2862 2854 2725 2311 2398
0 0 0 0 0 0 0 0 0 0 0 0 0 0 0 0 0 0 0 0 0 0 0 0 0 0 0 0 0 0 6 1150 2272 2677 2866 3300 3430 3579 3685 3612 3331 3288 2558 1960 2202 2293 2681 2851 2767
0 0 0 0 0 0 0 0 0 0 0 0 0 0 0 0 0 0 0 0 0 0 0 0 0 0 0 1 0 0 16 7 1520 2343 2586 2998 3395 3607 3733 3706 3466 3281 2871 2504 1893 1808 1852 1920 2488
0 0 0 0 0 0 0 0 0 0 0 0 0 5 0 0 0 0 0 0 0 0 2 5 3 1 0 2 1 0 0 0 443 2095 2392 2405 3257 3482 3752 3819 3675 3328 2804 2337 1849 1648 1609 1381 1299
0 0 0 0 0 0 0 0 0 0 0 23 1 0 0 0 0 0 0 0 0 0 2 5 7 5 3 5 6 6 3 2 93 263 2328 2482 2879 3082 3572 3621 3550 3257 2749 2431 2107 1624 1518 1426 1252
0 0 0 0 0 0 0 1 0 1 0 0 0 0 0 0 0 0 0 0 0 0 3 7 8 7 6 6 7 8 12 6 16 302 1102 1993 2406 2679 3433 3226 3151 2824 2431 2396 2347 1838 1414 1469 1142
0 0 0 3 8 0 0 2 0 0 0 0 0 0 0 1 1 1 1 2 4 4 5 6 7 7 6 8 7 6 6 13 8 13 601 1830 2224 2514 2812 2765 2356 2607 2382 2148 2187 1530 1348 1368 1154
0 3 15 1 8 5 0 0 49 0 0 2 1 3 3 5 5 4 6 6 8 10 10 10 8 9 9 8 7 5 7 14 13 27 625 785 2215 2726 2829 2626 2030 1948 2371 1964 1740 1447 1338 1232 1205
0 0 0 1 0 1 0 0 6 0 5 4 6 5 7 7 9 8 11 12 11 14 13 13 10 10 10 7 11 6 12 15 14 67 1032 1478 2052 2724 2676 2477 1711 1595 1608 1748 1448 1274 1126 1258 1320
0 0 3 13 6 11 5 16 18 8 5 6 7 7 8 9 4 9 12 13 15 15 18 19 8 7 5 10 9 9 8 15 15 344 1415 2051 2262 2538 2323 2258 1650 1454 1407 1349 1305 1209 1061 974 1070
2 3 0 14 43 61 71 36 12 5 10 10 8 5 15 13 8 29 25 12 15 20 14 13 11 7 11 8 6 5 17 15 17 678 1798 2390 2277 1960 2094 2100 1612 1412 1323 1204 1181 1033 903 898 995
2 19 26 68 32 54 63 73 4 3 5 5 2 8 7 8 10 26 24 19 23 17 17 12 12 9 9 2 6 20 13 10 3 244 1475 2074 1712 1818 1999 1910 1811 1629 1185 1028 969 931 843 834 587
CIN
-0 -0 -0 -0 -0 -0 -0 -0 -0 -0 -0 -0 -0 -0 -0 -0 -0 -0 -0 -89 -149 -127 -84 -278 -384 -323 -283 -216 -182 -149 -127 -90 -84 -78 -65 -51 -35 -9 -0 -1 -1 -0 -0 -0 -0 -0 -0 -0 -0
-0 -0 -0 -0 -0 -0 -0 -0 -0 -0 -0 -0 -0 -0 -0 -0 -0 -0 -0 -156 -148 -143 -61 -167 -368 -328 -299 -240 -193 -145 -96 -82 -79 -70 -55 -44 -27 -8 -0 -1 -2 -2 -0 -0 -0 -0 -0 -0 -5
-0 -0 -0 -0 -0 -0 -0 -0 -0 -0 -0 -0 -0 -0 -0 -0 -0 -0 -321 -122 -128 -118 -79 -118 -348 -329 -295 -245 -183 -140 -107 -96 -90 -74 -48 -35 -19 -5 -1 -3 -2 -1 -0 -0 -0 -0 -0 -17 -26
-0 -0 -0 -0 -0 -0 -0 -0 -0 -0 -0 -0 -0 -0 -0 -0 -0 -0 -291 -113 -111 -78 -61 -405 -337 -308 -287 -257 -184 -130 -120 -122 -107 -79 -50 -30 -12 -4 -3 -11 -3 -0 -0 -0 -0 -0 -11 -52 -50
-0 -0 -0 -0 -0 -0 -0 -0 -0 -0 -0 -0 -0 -0 -0 -0 -0 -0 -255 -104 -99 -75 -36 -115 -323 -286 -247 -212 -169 -151 -142 -127 -102 -77 -55 -37 -21 -10 -23 -23 -4 -1 -0 -0 -0 -3 -33 -57 -54
-0 -0 -0 -0 -0 -0 -0 -0 -0 -0 -0 -0 -0 -0 -0 -0 -0 -0 -194 -116 -68 -55 -32 -26 -256 -242 -218 -182 -171 -174 -164 -129 -89 -75 -59 -38 -31 -35 -44 -28 -8 -3 -2 -3 -6 -30 -38 -46 -49
-0 -0 -0 -0 -0 -0 -0 -0 -0 -0 -0 -0 -0 -0 -0 -0 -0 -0 -0 -117 -62 -44 -35 -26 -102 -146 -214 -192 -171 -168 -158 -133 -95 -74 -59 -43 -43 -50 -44 -29 -10 -4 -4 -7 -24 -40 -46 -38 -48
-0 -0 -0 -0 -0 -0 -0 -0 -0 -0 -0 -0 -0 -0 -0 -0 -0 -0 -0 -0 -83 -31 -20 -1 -34 -68 -83 -103 -231 -209 -153 -135 -102 -76 -61 -47 -46 -49 -40 -23 -13 -4 -14 -25 -34 -49 -46 -42 -57
-0 -0 -0 -0 -0 -0 -0 -0 -0 -0 -0 -0 -0 -0 -0 -0 -0 -0 -0 -0 -85 -45 -35 -4 -27 -30 -25 -37 -99 -230 -189 -140 -112 -59 -56 -56 -0 -0 -0 -2 -17 -21 -28 -30 -39 -60 -53 -52 -77
-0 -0 -0 -0 -0 -0 -0 -0 -0 -0 -0 -0 -0 -0 -0 -0 -0 -0 -0 -0 -0 -82 -24 -28 -25 -17 -0 -2 -6 -42 -50 -58 -48 -23 -0 -0 -0 -0 -0 -4 -37 -41 -35 -32 -42 -54 -70 -66 -0
-0 -0 -0 -0 -0 -0 -0 -0 -0 -0 -0 -0 -0 -0 -0 -0 -0 -0 -0 -0 -0 -82 -1 -17 -27 -19 -19 -0 -0 -5 -14 -4 -8 -13 -2 -1 -0 -0 -0 -0 -1 -0 -35 -0 -12 -21 -0 -3 -1
-0 -0 -0 -0 -0 -0 -0 -0 -0 -0 -0 -0 -0 -0 -0 -0 -0 -0 -0 -0 -0 -0 -33 -1 -1 -4 -12 -3 -1 -14 -4 -0 -0 -0 -0 -0 -0 -0 -0 -0 -0 -0 -0 -0 -0 -1 -5 -0 -0
-0 -0 -0 -0 -0 -0 -0 -0 -0 -0 -0 -0 -0 -0 -0 -0 -0 -0 -0 -0 -0 -0 -0 -33 -0 -0 -0 -0 -0 -9 -6 -25 -7 -1 -0 -0 -2 -0 -0 -0 -0 -1 -0 -0 -0 -1 -0 -1 -0
-0 -0 -0 -0 -0 -0 -0 -0 -0 -0 -0 -0 -0 -0 -0 -0 -0 -0 -0 -0 -0 -0 -0 -0 -11 -0 -0 -0 -0 -0 -0 -0 -9 -16 -9 -0 -0 -0 -0 -0 -0 -0 -0 -0 -0 -0 -6 -2 -0
-0 -0 -0 -0 -0 -0 -0 -0 -0 -0 -0 -0 -0 -0 -0 -0 -0 -0 -0 -0 -0 -0 -0 -0 -0 -0 -10 -0 -0 -0 -0 -0 -0 -10 -3 -25 -0 -0 -1 -0 -0 -0 -0 -6 -0 -0 -1 -5 -1
-0 -0 -0 -0 -0 -0 -0 -0 -0 -0 -0 -0 -0 -0 -0 -0 -0 -0 -0 -0 -0 -0 -0 -0 -0 -0 -0 -21 -0 -0 -0 -0 -0 -0 -23 -27 -40 -0 -0 -24 -0 -0 -0 -0 -11 -3 -0 -4 -4
-0 -0 -0 -0 -0 -0 -0 -0 -0 -0 -0 -0 -0 -0 -0 -0 -0 -0 -0 -0 -0 -0 -0 -0 -0 -0 -0 -6 -7 -0 -0 -0 -0 -0 -4 -13 -40 -13 -0 -13 -23 -0 -0 -0 -1 -9 -1 -0 -0
-0 -0 -0 -0 -0 -0 -0 -0 -0 -0 -0 -0 -0 -0 -0 -0 -0 -0 -0 -0 -0 -0 -0 -0 -0 -0 -0 -0 -59 -25 -0 -0 -0 -0 -0 -11 -2 -15 -9 -1 -7 -11 -0 -1 -0 -0 -0 -2 -0
-0 -0 -0 -0 -0 -0 -0 -0 -0 -0 -0 -0 -0 -0 -0 -0 -0 -0 -0 -0 -0 -0 -0 -0 -0 -0 -0 -0 -0 -102 -0 -0 -0 -0 -0 -0 -0 -0 -1 -4 -0 -15 -28 -23 -0 -0 -0 -5 -2
-0 -0 -0 -0 -0 -0 -0 -0 -0 -0 -0 -0 -0 -0 -0 -0 -0 -0 -0 -0 -0 -0 -0 -0 -0 -0 -0 -0 -0 -0 -162 -6 -0 -0 -0 -0 -0 -0 -0 -3 -1 -5 -40 -63 -16 -3 -1 -0 -0
-0 -0 -0 -0 -0 -0 -0 -0 -0 -0 -0 -0 -0 -0 -0 -0 -0 -0 -0 -0 -0 -0 -0 -0 -0 -0 -0 -0 -0 -0 -119 -156 -1 -0 -0 -0 -0 -0 -0 -4 -10 -0 -28 -49 -53 -35 -13 -9 -1
-0 -0 -0 -0 -0 -0 -0 -0 -0 -0 -0 -0 -0 -0 -0 -0 -0 -0 -0 -0 -0 -0 -0 -0 -0 -0 -0 -0 -0 -0 -0 -26 -43 -0 -0 -0 -0 -0 -0 -0 -2 -1 -32 -57 -109 -79 -52 -30 -51
-0 -0 -0 -0 -0 -0 -0 -0 -0 -0 -0 -14 -0 -0 -0 -0 -0 -0 -0 -0 -0 -0 -0 -0 -0 -0 -0 -0 -0 -0 -0 -38 -189 -112 -0 -0 -0 -0 -0 -0 -0 -2 -24 -65 -87 -97 -66 -55 -38
-0 -0 -0 -0 -0 -0 -0 -0 -0 -11 -0 -0 -0 -0 -0 -0 -0 -0 -0 -0 -0 -0 -0 -0 -0 -0 -0 -0 -0 -0 -0 -0 -243 -56 -7 -2 -0 -0 -0 -0 -0 -9 -33 -52 -64 -94 -93 -57 -62
-0 -0 -0 -0 -0 -0 -0 -0 -0 -0 -0 -0 -0 -0 -0 -0 -0 -0 -0 -0 -0 -0 -0 -0 -0 -0 -0 -0 -0 -0 -0 -0 -0 -166 -43 -0 -0 -0 -0 -1 -17 -13 -28 -77 -75 -111 -112 -69 -69
-0 -0 -0 -0 -0 -0 -0 -0 -1 -0 -0 -0 -0 -0 -0 -0 -0 -0 -0 -0 -0 -0 -0 -0 -0 -0 -0 -0 -0 -0 -0 -0 -0 -123 -47 -60 -0 -0 -0 -0 -31 -49 -28 -69 -96 -111 -103 -84 -66
-0 -0 -0 -0 -0 -0 -0 -0 -1 -0 -0 -0 -0 -0 -0 -0 -0 -0 -0 -0 -0 -0 -0 -0 -0 -0 -0 -0 -0 -0 -0 -0 -0 -153 -12 -6 -5 -0 -0 -0 -22 -44 -48 -60 -121 -137 -125 -86 -62
-0 -0 -0 -0 -0 -0 -0 -0 -36 -0 -0 -0 -0 -0 -0 -0 -0 -0 -0 -0 -0 -0 -0 -0 -0 -0 -0 -0 -0 -0 -0 -0 -0 -99 -2 -0 -0 -0 -0 -0 -12 -25 -28 -68 -92 -117 -113 -93 -67
-0 -0 -0 -0 -0 -0 -0 -14 -0 -0 -0 -0 -0 -0 -0 -0 -0 -0 -0 -0 -0 -0 -0 -0 -0 -0 -0 -0 -0 -0 -0 -0 -0 -66 -0 -0 -0 -0 -0 -0 -6 -8 -13 -39 -73 -100 -110 -83 -60
-0 -0 -0 -0 -0 -3 -0 -8 -0 -0 -0 -0 -0 -0 -0 -0 -0 -0 -0 -0 -0 -0 -0 -0 -0 -0 -0 -0 -0 -0 -0 -0 -0 -160 -1 -0 -1 -1 -1 -0 -0 -0 -4 -29 -67 -62 -71 -55 -90
Wind_Speed
10 13 10 6 9 8 14 12 5 4 7 6 7 7 12 12 8 5 14 13 10 8 15 17 15 14 14 13 13 13 15 15 15 14 13 12 12 10 10 9 9 9 9 10 10 11 10 9 10
12 7 7 8 9 13 12 10 8 6 10 2 6 5 9 2 4 9 15 20 12 5 13 16 12 15 16 14 15 15 16 16 15 15 14 14 13 12 11 10 9 9 9 9 9 13 11 10 10
14 10 11 7 14 14 13 8 8 9 2 4 4 1 6 5 10 11 17 15 7 5 11 14 12 13 15 15 15 15 15 15 15 15 15 15 14 14 12 10 10 9 9 9 10 11 11 10 10
8 7 8 12 18 13 12 4 5 2 7 3 2 9 6 7 6 11 16 13 6 4 10 19 11 9 14 15 15 14 14 15 15 15 16 15 14 14 12 11 10 9 9 8 9 10 10 11 11
8 8 12 16 18 19 13 9 2 10 8 7 8 12 4 10 7 11 13 12 7 3 9 14 11 8 10 13 14 14 14 14 15 15 15 15 15 14 12 11 10 9 8 8 9 8 9 11 11
9 6 13 14 17 15 9 10 8 11 11 10 9 13 9 7 11 10 11 11 6 2 7 13 9 5 7 9 10 12 13 13 12 14 14 14 14 13 13 12 10 10 9 9 9 9 9 9 10
15 12 16 19 18 17 4 3 8 10 11 7 6 6 6 7 11 11 10 8 6 3 6 10 11 11 4 6 7 7 10 12 12 12 13 12 12 11 12 12 11 10 9 10 9 9 9 8 9
12 13 22 17 15 16 11 6 6 10 11 6 4 7 10 12 13 12 7 6 3 3 6 8 9 13 13 11 6 6 8 10 11 11 11 10 9 10 11 10 10 10 9 10 10 9 9 9 8
10 13 15 17 16 14 10 4 12 2 9 13 5 10 11 14 14 12 8 7 4 3 3 2 10 10 14 13 11 8 7 7 8 9 8 10 10 12 13 12 13 10 9 10 10 10 10 9 7
11 12 19 14 16 12 13 14 12 14 12 13 11 13 8 11 12 12 11 8 8 3 8 5 7 8 11 12 13 12 11 10 11 12 13 11 12 11 12 13 11 10 10 9 10 10 10 10 9
13 17 20 17 9 13 16 16 14 16 17 16 14 13 12 11 11 12 11 10 8 8 7 11 8 8 8 10 10 8 9 9 9 14 13 12 10 9 10 8 9 9 9 8 9 9 9 12 9
17 17 15 18 14 13 14 15 16 18 17 17 13 12 10 12 9 10 7 9 8 7 4 11 11 11 12 10 8 9 10 10 9 12 13 10 8 7 10 8 10 9 10 11 11 8 11 12 10
14 17 18 13 15 15 15 17 19 20 19 17 15 7 10 8 9 10 9 9 7 5 4 4 10 10 10 12 8 9 9 10 10 11 13 11 12 10 11 10 10 9 11 9 10 9 9 9 11
16 13 16 15 16 15 18 19 20 19 10 9 8 10 6 8 9 10 11 11 7 7 5 4 7 10 11 11 11 9 10 10 11 12 11 14 10 8 10 11 11 12 11 9 10 10 8 6 8
11 18 18 18 17 16 5 16 24 17 12 10 10 11 8 10 11 11 10 10 10 9 9 5 5 9 10 13 13 9 11 11 10 11 13 11 14 13 12 10 10 10 10 10 10 11 8 7 8
18 19 18 16 4 8 7 15 17 7 8 11 11 13 13 14 12 10 9 11 12 10 10 8 6 8 10 11 11 10 11 9 11 10 12 16 16 16 13 10 11 10 9 10 6 9 9 7 7
16 17 20 13 14 7 12 15 10 6 11 13 16 17 15 14 11 10 9 12 11 13 15 12 11 13 11 11 11 13 12 12 11 10 12 15 19 19 14 12 10 11 9 9 9 7 9 10 10
18 17 16 12 10 14 16 21 19 18 20 13 18 16 14 14 8 15 16 16 17 15 15 15 12 12 12 10 10 11 11 12 10 11 11 17 16 18 16 12 13 11 10 8 11 12 9 9 8
16 18 21 20 17 20 19 22 21 17 21 21 18 18 13 7 11 12 13 13 14 15 16 16 14 13 10 10 9 11 12 12 11 12 15 16 16 18 18 14 15 15 13 12 12 13 12 8 7
16 20 22 21 19 11 19 24 23 24 27 20 10 3 9 10 11 12 13 14 15 15 16 16 16 14 12 10 11 10 11 12 12 12 14 16 17 17 17 17 14 17 13 13 13 13 10 10 10
18 19 20 21 19 21 23 30 23 14 4 7 7 5 6 10 13 14 15 15 15 16 15 15 17 17 14 14 12 12 13 12 12 13 13 15 17 18 19 20 16 15 13 13 14 13 13 10 8
21 14 17 14 16 18 20 22 25 22 25 12 8 7 9 12 14 16 17 18 18 17 16 15 16 17 16 15 13 16 14 15 12 12 13 13 18 18 19 19 18 15 13 15 15 13 13 10 10
16 11 10 16 18 21 30 15 26 19 13 15 7 8 11 13 15 17 18 20 21 18 17 17 17 17 17 15 15 13 16 14 14 13 17 18 14 20 18 19 17 16 13 16 16 15 16 12 10
12 11 16 18 17 19 25 22 22 6 10 7 7 9 12 16 18 18 19 20 20 19 18 19 19 17 17 16 16 17 19 18 16 16 14 13 13 13 18 19 16 15 15 15 15 15 17 13 12
11 13 12 14 12 16 21 13 8 9 11 11 13 16 16 17 18 20 21 21 21 23 22 18 20 20 18 18 17 17 19 20 21 20 16 15 12 13 16 17 15 14 16 16 15 14 15 16 13
15 14 12 19 15 18 21 9 6 12 10 11 11 12 14 17 17 19 20 19 19 21 22 21 21 20 19 18 18 17 19 12 16 19 17 14 14 14 15 16 16 17 19 16 14 12 12 14 13
7 15 12 18 18 17 16 20 14 10 11 13 13 13 15 16 17 18 19 18 19 19 20 20 20 20 19 18 16 18 17 18 18 23 20 15 20 13 15 16 17 17 16 16 16 12 14 14 14
14 10 7 7 7 12 11 14 6 9 11 13 13 14 15 16 17 17 18 19 19 19 19 19 18 18 18 17 14 14 17 17 18 22 22 19 19 14 14 17 16 15 16 15 15 13 13 14 12
12 13 14 13 11 10 10 3 4 6 8 11 14 16 14 15 16 13 15 17 16 18 17 19 16 19 18 15 15 17 13 14 17 21 19 18 17 14 15 16 15 16 15 14 14 13 12 15 13
14 16 16 11 14 8 14 6 5 5 6 10 12 13 14 15 17 14 15 15 16 17 17 18 17 18 16 14 17 14 12 12 13 16 15 14 15 15 15 16 17 16 12 11 12 11 11 13 16
Wind_Direction
246 231 239 246 243 226 265 244 333 215 229 62 11 322 340 332 313 1 0 32 358 287 146 164 156 150 144 144 145 148 151 151 150 150 151 150 151 152 153 150 141 145 149 155 165 164 157 146 135
240 237 234 263 254 254 246 214 173 248 65 21 282 261 241 189 7 338 3 347 345 258 146 181 163 153 147 149 150 152 153 152 152 153 155 155 159 158 157 151 149 153 157 160 163 162 150 138 128
255 245 266 231 238 256 274 37 9 52 52 263 263 258 305 24 36 353 356 351 345 221 160 169 162 158 151 151 151 151 149 151 153 157 161 162 164 162 159 153 154 156 160 161 161 160 142 132 130
205 201 250 259 257 259 279 71 70 213 151 211 321 270 138 84 359 358 351 352 336 220 170 131 147 171 157 153 149 145 145 151 155 160 163 166 166 164 158 156 159 164 165 166 155 151 143 138 138
241 258 247 245 258 268 268 269 0 281 291 271 275 277 202 132 31 5 359 2 348 196 136 142 144 182 164 154 149 148 151 152 158 160 163 167 165 163 157 159 162 166 165 162 142 147 145 143 145
238 257 251 253 258 247 255 290 293 292 278 274 269 256 277 104 40 357 3 7 352 244 182 130 144 169 170 157 151 151 151 152 158 160 163 164 163 160 158 162 168 167 162 145 142 149 148 148 151
254 259 259 277 281 282 297 329 300 294 290 282 24 264 272 149 34 344 346 1 1 270 208 129 173 179 159 141 145 156 155 155 160 160 160 159 158 159 163 164 171 172 160 154 152 155 154 155 153
275 265 270 266 271 278 282 302 273 274 274 10 284 255 257 14 353 319 321 324 26 285 212 161 185 184 186 182 139 162 170 162 161 162 155 151 155 162 166 165 172 183 174 162 158 161 161 158 156
257 267 258 261 272 270 281 278 282 327 283 288 249 269 289 319 312 307 307 297 188 150 258 123 181 202 190 183 170 174 178 165 155 157 148 154 190 184 176 195 164 180 177 169 164 168 166 159 148
232 248 264 289 325 308 313 291 285 288 271 268 271 260 303 306 308 302 299 298 305 230 179 186 175 201 209 198 165 193 189 197 194 189 180 199 204 187 201 184 173 169 176 172 173 173 164 179 179
255 251 285 292 300 288 287 281 278 283 275 275 293 314 293 315 293 291 291 291 291 306 169 184 186 181 197 230 177 192 191 202 202 199 192 203 202 184 213 182 182 197 179 188 184 177 198 201 201
248 265 266 291 292 290 280 292 288 282 287 287 284 283 313 276 282 280 287 291 316 304 288 172 198 186 194 213 200 201 200 190 203 204 201 195 208 188 213 193 201 195 187 204 190 191 205 203 231
262 262 278 274 275 269 281 275 276 277 277 278 281 294 262 292 288 283 292 287 244 313 288 322 185 207 199 208 196 207 224 195 216 200 197 212 202 185 216 205 189 199 197 198 193 195 206 211 215
286 299 287 282 268 274 272 275 279 263 270 283 255 260 268 282 291 299 283 277 316 288 278 271 269 205 220 204 220 203 216 217 191 212 214 216 213 200 218 215 220 197 197 200 194 197 191 201 212
279 278 273 263 252 258 281 268 251 246 240 241 258 252 274 286 288 280 295 300 288 284 272 243 276 266 238 234 217 218 227 226 211 206 180 209 230 198 191 233 230 214 201 197 187 197 185 200 211
258 263 270 272 46 250 228 279 301 125 237 246 276 296 289 285 293 299 309 308 303 298 303 309 315 297 273 249 239 225 223 228 231 201 207 195 211 228 191 195 233 219 221 186 191 197 193 191 206
241 256 275 277 177 253 252 283 306 283 243 266 276 281 279 295 296 303 328 330 319 339 337 327 321 300 281 265 249 233 227 226 223 228 198 206 202 212 225 199 206 229 225 190 200 207 188 203 203
279 290 288 256 262 222 244 272 277 271 266 266 263 269 278 277 337 8 355 347 341 332 325 321 310 316 309 289 270 249 231 229 222 231 216 210 204 201 210 213 201 206 225 208 201 205 202 207 202
279 283 278 280 282 281 277 278 275 280 268 261 255 253 257 1 359 345 338 328 327 326 324 319 321 314 305 295 264 246 229 233 221 221 226 211 212 198 203 209 200 195 203 206 205 204 203 205 188
278 273 272 276 275 283 277 274 283 279 266 273 307 312 20 342 324 334 330 330 330 325 322 319 314 313 309 301 291 282 274 235 220 226 222 219 212 201 201 208 205 189 196 198 206 214 205 202 183
254 265 277 285 306 292 281 268 264 282 240 187 94 25 347 343 333 331 329 329 327 321 319 316 314 312 305 306 294 279 273 265 245 214 235 221 221 204 206 207 206 201 192 194 199 202 202 199 208
275 281 294 300 279 282 303 292 287 281 261 163 132 20 357 344 338 335 333 330 330 321 317 316 315 310 305 305 289 279 274 273 245 228 215 237 212 215 208 211 209 202 194 196 196 198 200 196 197
275 294 285 288 286 290 275 273 282 273 221 131 67 9 347 340 344 336 336 332 326 326 324 317 313 305 301 303 297 286 275 273 274 272 216 210 222 219 215 211 209 203 198 203 196 196 200 198 202
279 282 266 265 264 259 274 268 267 2 41 64 18 2 355 346 339 340 337 334 328 327 324 320 313 303 306 299 294 284 280 276 273 275 272 207 214 219 221 214 207 201 200 202 200 196 200 199 204
233 266 272 266 243 255 263 254 305 80 59 38 11 0 353 346 342 339 340 335 329 326 324 319 315 308 305 300 293 286 277 273 268 264 266 249 210 214 216 211 206 202 198 200 196 193 198 201 198
280 240 258 284 293 299 311 269 92 90 78 53 21 360 351 344 344 341 336 329 327 326 324 323 317 310 308 304 297 292 284 272 265 252 256 258 209 216 203 208 208 211 208 197 192 191 201 200 201
271 241 269 286 280 268 263 263 123 64 44 18 5 2 351 346 344 338 338 336 333 330 330 325 320 317 314 309 303 293 281 272 260 255 255 247 260 205 204 199 203 209 207 201 191 191 199 200 201
254 289 265 213 260 250 249 251 75 27 0 360 355 2 357 351 342 344 343 343 339 335 330 331 327 321 318 309 300 292 285 272 259 257 245 239 243 221 200 201 197 199 202 196 192 192 199 200 205
213 232 244 266 265 281 295 67 45 28 9 358 353 360 3 355 349 351 346 342 337 332 338 339 332 332 327 315 319 304 297 286 266 249 244 236 236 222 209 203 194 195 200 194 196 197 191 199 200
269 271 209 228 250 306 282 291 47 46 19 20 10 349 1 4 357 358 350 344 341 348 345 343 339 338 331 326 335 325 325 328 18 3 260 225 224 225 218 211 200 194 193 191 191 191 190 194 202